Regional Weather Roundup
Issued by NWS

Home | Current Version | Previous Version | Graphics & Text | Print | Product List | Glossary On
Versions: 1 2 3 4 5 6 7 8 9 10 11 12 13 14 15 16 17 18 19 20 21 22 23 24 25 26 27 28 29 30 31 32 33 34 35 36 37 38 39 40 41 42 43 44 45 46 47 48 49 50
000
ASUS43 KLMK 060510
RWRKY
KENTUCKY REGIONAL WEATHER ROUNDUP
NATIONAL WEATHER SERVICE LOUISVILLE KY
1200 AM EST FRI MAR 06 2015

NOTE "FAIR" INDICATES FEW OR NO CLOUDS BELOW 12,000 FEET
WITH NO SIGNIFICANT WEATHER AND/OR OBSTRUCTIONS TO VISIBILITY.

KYZ001>023-026-027-061>063-070>075-060600-
WESTERN AND SOUTH CENTRAL KENTUCKY

CITY           SKY/WX    TMP DP  RH WIND       PRES   REMARKS
PADUCAH        PTCLDY    11   4  73 CALM      30.60S
HENDERSON      MOCLDY     5  -6  61 N3        30.62R
OWENSBORO      MOCLDY    12   3  67 N5        30.61S WCI   4
HOPKINSVILLE   PTCLDY    13   3  65 N5        30.58S WCI   5
BOWLING GREEN  MOCLDY    15   4  61 NW3       30.58R
GLASGOW        MOCLDY    10   5  81 CALM      30.54S
$$

KYZ024-025-028>034-038-045-046-053-060600-
NORTH CENTRAL KENTUCKY

CITY           SKY/WX    TMP DP  RH WIND       PRES   REMARKS
LOUISVILLE/SDF MOCLDY    15   7  70 NW6       30.57R WCI   6
LOUISVILLE/LOU MOCLDY    15   8  73 CALM      30.57R
FORT KNOX      MOCLDY    13   5  70 NW7       30.53S WCI   2
$$

KYZ035>037-039>044-047>052-055>060-089>105-060600-
NORTHEAST KENTUCKY

CITY           SKY/WX    TMP DP  RH WIND       PRES   REMARKS
LEXINGTON      PTCLDY     9   5  84 E7        30.52S WCI  -2
COVINGTON      FAIR      11   3  70 CALM      30.53F
FRANKFORT      PTCLDY     6   0  76 CALM      30.53R
$$

KYZ054-064>069-076>088-106>120-060600-
SOUTHEAST KENTUCKY

CITY           SKY/WX    TMP DP  RH WIND       PRES   REMARKS
JACKSON        PTCLDY    14   7  73 CALM      30.47S
LONDON         MOCLDY     8   1  73 CALM      30.49S
SOMERSET       MOCLDY     9   7  92 CALM      30.54S
MIDDLESBORO    CLOUDY    18  12  76 N5        30.49S WCI  11
MONTICELLO     SNOW      -5  -9  83 CALM      30.55S VSB<1/4
$$




USA.gov is the U.S. government's official web portal to all federal, state and local government web resources and services.